Location: Tarleton Observatory
(32.2162°N, 98.0976°W)
Time: 01:48:40
(UTC-05:00)

Daily predictions for brighter satellites

Satellite Brightness Start Highest point End
(mag) Time Altitude Azimuth Time Altitude Azimuth Time Altitude Azimuth
ATLAS CENTAUR R/B 4.4 00:09:14 10° NNE 00:09:14 10° NNE 00:09:16 10° NNE
Cosmos 2227 Rocket 3.9 00:18:08 10° N 00:21:18 24° NE 00:21:18 24° NE
Cosmos 2219 4.3 00:21:49 10° NNW 00:25:31 41° NNW 00:25:31 41° NNW
Cosmos 2297 Rocket 3.8 01:12:12 10° NNW 01:15:02 30° N 01:15:02 30° N
CZ-4C R/B 4.3 01:30:05 10° N 01:36:25 30° NE 01:38:04 28° ENE
USA 229 DEB 4.5 01:42:08 46° NNW 01:42:08 46° NNW 01:47:20 10° NNE
USA 229 4.5 01:42:16 46° NNW 01:42:16 46° NNW 01:47:26 10° NNE
CZ-3C R/B 4.5 02:00:15 52° SSE 02:00:15 52° SSE 03:02:38 10° ESE
Cosmos 2263 Rocket 4.4 02:20:10 10° NNE 02:23:52 17° ENE 02:24:59 17° ENE
Cosmos 2360 Rocket 4.4 02:29:01 17° ENE 02:29:01 17° ENE 02:31:03 10° NE
Cosmos 1980 Rocket 3.8 02:30:02 28° NNW 02:30:02 28° NNW 02:33:06 10° N
SL-16 R/B 3.3 03:12:15 39° NNW 03:12:15 39° NNW 03:16:05 10° N
USA 234 3.7 03:04:37 10° NNE 03:10:55 52° NW 03:10:58 52° NW
Cosmos 2322 Rocket 3.3 03:20:24 37° NNW 03:20:24 37° NNW 03:24:21 10° N
CZ-4C R/B 3.5 03:18:00 10° NW 03:23:10 44° WNW 03:23:10 44° WNW
ADEOS Rocket 3.1 03:23:38 10° N 03:28:47 64° N 03:28:47 64° N
ATLAS 2AS CENTAUR R/B 3.0 03:31:06 61° SE 03:31:44 63° ESE 03:39:40 10° NE
ARIANE 5 R/B 3.5 03:27:28 10° NNE 03:31:42 42° ENE 03:31:42 42° ENE
Resurs 1-4 Rocket 2.6 03:32:05 10° NNE 03:36:32 54° ENE 03:36:32 54° ENE
Cosmos 2237 4.2 03:53:17 77° ENE 03:53:17 77° ENE 03:58:45 10° NNE
UNK 4.3 03:57:26 55° N 03:57:26 55° N 04:01:07 10° N
BREEZE-M DEB (TANK) 3.4 03:57:13 54° ESE 03:57:13 54° ESE 04:05:46 10° NE
MOS 1 Rocket 3.9 03:54:01 10° NNE 03:57:37 48° ENE 03:57:37 48° ENE
Cosmos 1271 Rocket 4.3 03:59:31 35° ENE 03:59:31 35° ENE 04:02:26 10° NNE
CZ-2D R/B 2.1 03:55:24 10° N 04:00:39 78° NW 04:00:39 78° NW
DELTA 2 R/B (1) 4.0 04:00:35 52° NW 04:01:10 54° NNW 04:06:37 10° ENE
Cosmos 1486 Rocket 4.3 03:58:43 10° N 04:03:58 64° ENE 04:04:52 55° ESE
Cosmos 2263 Rocket 2.8 04:02:34 10° NNW 04:06:36 42° WNW 04:06:36 42° WNW
UNKNOWN OBJECT B 3.8 04:06:33 10° NNE 04:09:32 43° ENE 04:09:32 43° ENE
Cosmos 2360 Rocket 2.8 04:10:47 42° WNW 04:10:47 42° WNW 04:15:56 10° N
ISS -1.1 04:08:28 10° NNW 04:10:56 20° NE 04:13:24 10° E
SL-16 R/B 2.4 04:11:56 65° SSW 04:12:44 73° WSW 04:19:00 10° NNW
Cosmos 44 Rocket 3.6 04:08:03 10° NNW 04:11:52 58° NNW 04:11:52 58° NNW
Cosmos 2219 Rocket 2.9 04:12:53 39° SE 04:14:15 47° ESE 04:19:41 10° NNE
Iridium 4 Rocket 3.7 04:15:39 69° WSW 04:16:01 71° W 04:21:44 10° N
COSMOS 2428 2.6 04:16:07 72° SSW 04:16:46 90° ESE 04:22:33 10° NNE
Cosmos 2237 Rocket 3.9 04:16:08 18° SE 04:18:54 26° ESE 04:23:28 10° NE
Cosmos 2228 3.6 04:27:00 46° NW 04:27:00 46° NW 04:30:20 10° N
Cosmos 1844 Rocket 3.9 04:23:00 10° N 04:28:19 40° ENE 04:33:37 10° SE
BREEZE-M DEB (TANK) 3.1 04:30:00 72° SSW 04:30:21 80° SE 04:40:02 10° NE
Cosmos 2333 Rocket 2.6 04:33:28 36° S 04:35:39 59° ESE 04:41:14 10° NNE
ADEOS 4.1 04:36:55 10° N 04:41:45 39° WNW 04:42:15 38° W
Atlas Centaur 2 3.4 04:45:39 17° SSE 04:45:39 17° SSE 04:48:29 10° ESE
Meteor 2-5 Rocket 3.7 04:42:49 10° NNW 04:48:27 64° W 04:50:51 35° SSW
Cosmos 1707 4.0 04:45:35 10° NNW 04:47:54 29° NW 04:47:54 29° NW
Cosmos 1766 3.1 04:49:51 70° WSW 04:50:03 72° W 04:53:58 10° N
ERBS 2.9 04:50:31 48° SE 04:50:38 48° SE 04:53:59 10° NE
Cosmos 1378 4.0 04:47:51 10° NNW 04:50:27 35° NW 04:50:27 35° NW
Cosmos 972 4.3 04:50:14 42° SSW 04:51:56 87° WNW 04:56:49 10° NNE
Cosmos 2058 Rocket 4.5 04:52:56 24° WNW 04:52:56 24° WNW 04:56:07 10° NNW
Cosmos 972 Rocket 4.4 04:52:03 37° W 04:52:37 38° WNW 04:57:13 10° N
Meteor 1-24 Rocket 3.7 04:47:11 10° N 04:52:39 81° E 04:58:01 11° S
Cosmos 2278 Rocket 4.4 04:50:24 10° N 04:55:04 26° ENE 04:59:43 10° ESE
Cosmos 1503 Rocket 3.9 04:51:02 10° NNW 04:56:22 80° WSW 05:01:42 10° S
Nadezhda 3 Rocket 4.1 04:56:12 10° NNW 05:02:16 54° W 05:05:51 25° SSW
SL-8 Rocket 4.0 04:57:45 19° S 05:02:24 87° E 05:08:45 10° N
OAO 3 Rocket 3.6 04:59:40 23° WNW 05:02:38 62° N 05:07:30 10° E
Cosmos 1812 Rocket 3.4 05:01:27 41° SSW 05:02:52 71° W 05:07:13 10° N
SL-16 R/B 4.0 05:01:19 10° SSE 05:05:58 27° ESE 05:10:38 10° NE
Abrixas rocket 2.1 05:07:05 64° SW 05:07:32 89° SSE 05:10:52 10° NE
ARIANE 5 R/B 4.2 05:07:45 10° NNW 05:11:06 18° WNW 05:12:02 17° W
USA 161 1.4 05:10:38 41° S 05:11:35 89° W 05:14:33 10° N
ADEOS II 2.1 05:09:29 10° NNE 05:14:46 84° ESE 05:19:03 16° S
Okean O Rocket 2.2 05:11:07 10° NNE 05:15:31 57° E 05:19:39 11° S
Lacrosse 5 2.7 05:12:17 19° S 05:15:35 44° ESE 05:20:24 10° NE
Resurs 1-4 Rocket 4.0 05:14:01 10° NW 05:16:32 14° WNW 05:17:37 13° WNW
Cosmos 1674 4.4 05:13:34 10° NNE 05:17:07 34° E 05:20:38 10° SSE
Meteor 2-21 Rocket 4.5 05:11:40 11° S 05:17:35 82° E 05:23:43 10° N
Cosmos 1844 3.7 05:13:56 10° NNW 05:19:34 88° ENE 05:25:15 10° SSE
NOSS 0 Rocket 4.0 05:17:51 23° SW 05:21:47 67° WNW 05:27:59 10° NNE
Intelsat 5-1 Rocket 3.4 05:20:48 25° SW 05:23:10 39° S 05:33:28 10° ESE
ATLAS 2AS CENTAUR R/B 4.2 05:18:33 16° W 05:23:17 28° NW 05:30:03 10° N
Cosmos 1805 3.5 05:22:30 29° SW 05:24:04 48° W 05:27:52 10° N
MOS 1-B 4.5 05:18:57 10° N 05:24:38 60° WNW 05:28:57 18° SSW
Cosmos 389 Rocket 4.1 05:25:46 19° WNW 05:25:49 19° WNW 05:28:25 10° NNW
BREEZE-M DEB (TANK) 3.7 05:12:11 10° NW 05:26:40 59° SW 05:30:36 10° SSE
Cosmos 1340 Rocket 3.8 05:25:50 10° NW 05:29:11 27° W 05:30:02 25° WSW
NOSS 3-4 (A) 3.5 05:25:33 16° SSW 05:30:38 83° ESE 05:37:03 10° NNE
NOSS 3-4 (C) 3.5 05:25:36 16° SSW 05:30:42 82° ESE 05:37:07 10° NNE
Aureole 2 Rocket 4.4 05:31:06 18° W 05:32:17 21° WNW 05:35:25 10° NNW
Cosmos 1727 Rocket 4.3 05:28:38 10° N 05:34:49 71° E 05:40:57 10° SSE
Cosmos 1607 4.3 05:30:55 10° NW 05:36:56 42° WSW 05:42:55 10° S
Cosmos 1356 Rocket 3.3 05:35:46 10° NNW 05:39:43 57° W 05:43:36 10° S
SEDSat Delta rocket 2.8 05:38:45 17° W 05:41:48 81° S 05:46:09 10° E
Cosmos 2366 rocket 4.1 05:36:45 10° SSW 05:42:46 58° W 05:48:52 10° N
Tiangong 1 0.7 05:42:14 24° SW 05:43:40 74° SSE 05:46:26 10° ENE
Meteor 1-21 Rocket 4.4 05:40:47 10° N 05:46:35 85° E 05:52:28 10° S
SeaSat 1 2.5 05:42:00 10° SSE 05:46:55 85° ENE 05:51:52 10° NNW
ISS -3.0 05:44:31 10° WNW 05:47:25 30° SW 05:50:19 10° SSE
Lacrosse 5 rocket 2.9 05:45:06 10° NNW 05:48:58 40° NE 05:53:04 10° ESE
Cosmos 482 Debris 3.2 05:48:29 24° WSW 05:49:20 45° NW 05:51:40 10° NE
ATLAS 2A CENTAUR R/B 2.0 05:48:23 17° WSW 05:49:51 26° S 05:51:38 10° SE
Meteor 2-16 Rocket 4.5 05:44:26 10° SSW 05:50:31 64° W 05:56:37 10° N
Cosmos 1758 4.2 05:48:00 15° SW 05:50:41 31° W 05:54:17 10° NNW
Cosmos 1339 Rocket 4.4 05:47:36 10° N 05:53:41 81° W 05:59:45 10° S
Cosmos 1953 3.2 05:54:15 12° SW 05:57:24 30° W 06:00:59 10° NNW
ATLAS 3B R/B 2.7 05:51:48 10° NW 05:58:11 53° WSW 06:04:24 10° S
Cosmos 2219 Rocket 3.7 05:54:37 11° WSW 05:58:24 20° WNW 06:02:31 10° NNW
Meteor 1-31 Rocket 3.0 05:57:01 10° NNE 06:00:51 74° E 06:04:43 10° S
PSLV R/B 4.3 05:57:13 10° N 06:01:15 37° WNW 06:05:18 10° SW
Okean-O 3.8 05:57:37 10° NNE 06:01:51 43° E 06:06:03 10° S
Cosmos 2237 Rocket 3.0 05:57:59 11° SW 06:02:44 33° WNW 06:07:48 10° N
Cosmos 1408 Rocket 4.0 06:00:27 10° N 06:04:53 70° E 06:09:17 10° SSE
CZ-4B R/B 4.1 06:04:39 10° NNW 06:07:52 24° WNW 06:11:11 10° SW
Iridium 2 3.7 06:04:52 10° S 06:08:39 90° E 06:12:29 10° N
Cosmos 1818 4.2 06:04:29 10° SW 06:09:34 41° WNW 06:14:42 10° NNE
EO 1 Del DPAF 3.8 06:06:07 10° SSE 06:09:55 63° ENE 06:13:44 10° N
IRS-1C Rocket 4.4 06:05:21 10° N 06:10:24 49° WNW 06:15:26 10° SSW
Cosmos 1844 Rocket 3.8 06:07:39 10° NW 06:11:51 22° W 06:16:02 10° SSW
Cosmos 1470 3.5 06:08:23 10° SSW 06:12:00 35° W 06:15:38 10° NNW
KM-V1 3.8 06:09:02 10° W 06:12:48 48° SSW 06:15:04 10° ESE
CZ-4B R/B 3.7 06:08:01 10° N 06:13:23 46° WNW 06:18:40 10° SW
CZ-2C R/B 3.7 06:09:32 10° SSE 06:14:05 84° WSW 06:18:35 10° NNW
RESURS DK-1 2.4 06:12:02 10° SSW 06:16:10 86° WNW 06:20:20 10° NNE
Cosmos 2333 Rocket 3.9 06:16:45 10° W 06:20:16 16° WNW 06:23:47 10° NNW
Cosmos 968 Rocket 4.0 06:15:52 10° NW 06:20:31 35° W 06:25:08 10° SSW
USA 238 DEB 4.1 06:15:40 10° NW 06:22:23 46° WSW 06:29:09 10° S
USA 238 4.0 06:15:46 10° NW 06:22:30 47° WSW 06:29:16 10° S
